Date String (YYYY-MM-DD hh:mm:ss) UTC,Instrument flags,absolute air pressure of the measurement (hPa),sample flow rate (lpm),inlet stack bypass flow (lpm),air temperature of the measurement (°C),ambient temperature measured by the external sensor (°C),aerosol sample conditioner tube jacket temperature (°C),OPC LED temperature (°C),internal box temperature (°C),relative humidity of the measurement (%),span deviation,mass concentration of particles derived from Lorenz-Mie calculation of OPC scattering (μg/m³),mass concentration of particles derived from Lorenz-Mie calculation of OPC scattering (μg/m³),mass concentration of particles derived from Lorenz-Mie calculation of OPC scattering (μg/m³)
DateTimeUTC,F1_M11,P_M11,Q1_M11,Q2_M11,T1_M11,T2_M11,T3_M11,T4_M11,T5_M11,U1_M11,ZSPAN_M11,X0_M11,X2_M11,X1_M11
2023-06-08 14:00:00,SystemResetWarning,0830.7,5.01,000.00,030.3,028.6,000.0,038.9,031.7,26.4,0000.0,0009.14,0003.01,0002.40
2023-06-08 14:01:00,SystemResetWarning,0830.7,5.01,000.00,030.3,028.6,000.0,038.9,031.7,25.6,0000.0,0008.64,0003.02,0002.40
2023-06-08 14:02:00,SystemResetWarning,0830.7,4.99,000.00,030.3,028.6,000.0,038.9,031.7,25.1,0000.0,0008.60,0003.03,0002.40
2023-06-08 14:03:00,SystemResetWarning,0830.7,4.99,000.00,030.3,028.5,000.0,038.9,031.6,25.6,0000.0,0008.30,0002.99,0002.40
2023-06-08 14:04:00,SystemResetWarning,0830.7,5.00,000.00,030.2,028.5,000.0,038.9,031.6,25.5,0000.0,0008.05,0002.96,0002.41
2023-06-08 14:05:00,SystemResetWarning,0830.7,5.01,000.00,030.2,028.5,000.0,038.8,031.6,24.7,0000.0,0007.90,0002.98,0002.42
2023-06-08 14:06:00,SystemResetWarning,0830.7,5.01,000.00,030.2,028.5,000.0,038.8,031.6,24.7,0000.0,0007.73,0002.95,0002.42
2023-06-08 14:07:00,SystemResetWarning,0830.7,4.98,000.00,030.2,028.5,000.0,038.8,031.6,25.5,0000.0,0007.44,0002.95,0002.43
2023-06-08 14:08:00,SystemResetWarning,0830.7,5.02,000.00,030.2,028.5,000.0,038.8,031.5,24.8,0000.0,0006.69,0003.01,0002.45
2023-06-08 14:09:00,SystemResetWarning,0830.7,5.01,000.00,030.2,028.4,000.0,038.8,031.5,24.6,0000.0,0006.28,0003.04,0002.47
2023-06-08 14:10:00,SystemResetWarning,0830.7,4.99,000.00,030.2,028.4,000.0,038.8,031.5,25.7,0000.0,0006.17,0003.05,0002.50
2023-06-08 14:11:00,SystemResetWarning,0830.7,4.99,000.00,030.2,028.4,000.0,038.8,031.5,25.0,0000.0,0005.96,0003.04,0002.52
2023-06-08 14:12:00,SystemResetWarning,0830.8,5.01,000.00,030.2,028.4,000.0,038.8,031.5,24.7,0000.0,0005.84,0003.04,0002.53
2023-06-08 14:13:00,SystemResetWarning,0830.8,5.01,000.00,030.2,028.4,000.0,038.8,031.6,24.8,0000.0,0005.67,0003.01,0002.54
2023-06-08 14:14:00,SystemResetWarning,0830.8,5.00,000.00,030.2,028.4,000.0,038.8,031.5,25.0,0000.0,0005.73,0003.05,0002.54
2023-06-08 14:15:00,SystemResetWarning,0830.8,4.99,000.00,030.2,028.4,000.0,038.8,031.5,25.5,0000.0,0004.48,0003.09,0002.55
2023-06-08 14:16:00,SystemResetWarning,0830.8,4.99,000.00,030.2,028.4,000.0,038.8,031.5,25.9,0000.0,0004.35,0003.10,0002.54
2023-06-08 14:17:00,SystemResetWarning,0830.9,5.01,000.00,030.2,028.5,000.0,038.8,031.6,26.2,0000.0,0005.07,0003.16,0002.56
2023-06-08 14:18:00,SystemResetWarning,0830.8,5.02,000.00,030.2,028.5,000.0,038.8,031.6,25.5,0000.0,0005.29,0003.20,0002.58
2023-06-08 14:19:00,SystemResetWarning,0830.8,5.00,000.00,030.2,028.5,000.0,038.8,031.5,25.7,0000.0,0005.24,0003.21,0002.58
2023-06-08 14:20:00,SystemResetWarning,0830.8,4.99,000.00,030.2,028.4,000.0,038.8,031.5,25.6,0000.0,0005.45,0003.23,0002.59
2023-06-08 14:21:00,SystemResetWarning,0830.8,5.00,000.00,030.2,028.5,000.0,038.8,031.6,25.9,0000.0,0005.62,0003.25,0002.60
2023-06-08 14:22:00,SystemResetWarning,0830.8,4.99,000.00,030.2,028.5,000.0,038.8,031.6,26.0,0000.0,0005.63,0003.24,0002.60
2023-06-08 14:23:00,SystemResetWarning,0830.8,5.01,000.00,030.2,028.5,000.0,038.8,031.6,26.0,0000.0,0005.48,0003.21,0002.60
2023-06-08 14:24:00,SystemResetWarning,0830.8,4.99,000.00,030.2,028.5,000.0,038.7,031.6,25.9,0000.0,0005.94,0003.22,0002.60
2023-06-08 14:25:00,SystemResetWarning,0830.8,5.01,000.00,030.2,028.5,000.0,038.8,031.6,26.1,0000.0,0006.38,0003.21,0002.60
2023-06-08 14:26:00,SystemResetWarning,0830.8,5.01,000.00,030.2,028.5,000.0,038.8,031.6,25.9,0000.0,0006.53,0003.21,0002.62
2023-06-08 14:27:00,SystemResetWarning,0830.8,5.01,000.00,030.2,028.5,000.0,038.7,031.7,26.2,0000.0,0006.97,0003.25,0002.63
2023-06-08 14:28:00,SystemResetWarning,0830.8,4.98,000.00,030.2,027.3,000.0,038.7,031.8,26.8,0000.0,0006.37,0003.22,0002.64
2023-06-08 14:29:00,SystemResetWarning,0830.9,5.00,000.00,030.2,025.5,000.0,038.6,031.6,26.1,0000.0,0006.24,0003.21,0002.65
2023-06-08 14:30:00,SystemResetWarning,0830.8,5.02,000.00,030.2,025.4,000.0,038.6,031.6,26.5,0000.0,0006.16,0003.18,0002.66
2023-06-08 14:31:00,SystemResetWarning,0830.8,4.99,000.00,030.1,025.7,000.0,038.6,031.2,26.8,0000.0,0006.12,0003.16,0002.65
2023-06-08 14:32:00,SystemResetWarning,0830.8,4.99,000.00,030.0,026.0,000.0,038.6,031.0,26.4,0000.0,0006.25,0003.18,0002.65
2023-06-08 14:33:00,SystemResetWarning,0830.8,5.00,000.00,029.9,026.4,000.0,038.6,031.0,25.7,0000.0,0006.28,0003.19,0002.66
2023-06-08 14:34:00,SystemResetWarning,0830.8,5.01,000.00,029.9,026.7,000.0,038.5,031.0,26.3,0000.0,0007.26,0003.20,0002.67
2023-06-08 14:35:00,SystemResetWarning,0830.8,4.99,000.00,029.8,027.0,000.0,038.5,031.1,26.7,0000.0,0007.36,0003.21,0002.66
2023-06-08 14:36:00,SystemResetWarning,0830.8,5.00,000.00,029.8,027.2,000.0,038.5,031.1,26.5,0000.0,0007.22,0003.25,0002.66
2023-06-08 14:37:00,SystemResetWarning,0830.8,5.01,000.00,029.8,027.4,000.0,038.5,031.2,26.6,0000.0,0007.66,0003.24,0002.63
2023-06-08 14:38:00,SystemResetWarning,0830.8,5.00,000.00,029.8,027.5,000.0,038.5,031.2,26.0,0000.0,0007.90,0003.19,0002.60
2023-06-08 14:39:00,SystemResetWarning,0830.9,4.99,000.00,029.8,027.7,000.0,038.5,031.2,25.9,0000.0,0008.09,0003.15,0002.57
2023-06-08 14:40:00,SystemResetWarning,0830.9,5.00,000.00,029.8,027.8,000.0,038.4,031.2,25.3,0000.0,0008.24,0003.14,0002.54
2023-06-08 14:41:00,SystemResetWarning,0830.9,5.01,000.00,029.8,027.8,000.0,038.4,031.2,26.7,0000.0,0009.04,0003.16,0002.52
2023-06-08 14:42:00,SystemResetWarning,0830.9,5.00,000.00,029.8,027.9,000.0,038.4,031.2,26.9,0000.0,0009.04,0003.16,0002.51
2023-06-08 14:43:00,SystemResetWarning,0831.0,5.01,000.00,029.8,028.0,000.0,038.4,031.2,27.0,0000.0,0008.89,0003.12,0002.50
2023-06-08 14:44:00,SystemResetWarning,0830.9,5.00,000.00,029.8,028.0,000.0,038.4,031.3,27.0,0000.0,0008.89,0003.11,0002.48
2023-06-08 14:45:00,SystemResetWarning,0830.9,4.99,000.00,029.8,028.0,000.0,038.4,031.2,27.3,0000.0,0008.92,0003.11,0002.47
2023-06-08 14:46:00,SystemResetWarning,0830.9,5.00,000.00,029.8,028.1,000.0,038.4,031.3,27.1,0000.0,0008.80,0003.12,0002.47
2023-06-08 14:47:00,SystemResetWarning,0831.0,5.00,000.00,029.8,028.1,000.0,038.4,031.3,27.4,0000.0,0008.68,0003.06,0002.46
2023-06-08 14:48:00,SystemResetWarning,0831.0,5.00,000.00,029.8,028.1,000.0,038.4,031.3,27.6,0000.0,0008.17,0003.05,0002.47
2023-06-08 14:49:00,SystemResetWarning,0831.0,4.99,000.00,029.8,028.2,000.0,038.4,031.3,26.5,0000.0,0007.69,0003.08,0002.48
2023-06-08 14:50:00,SystemResetWarning,0831.0,5.01,000.00,029.8,028.2,000.0,038.4,031.3,26.0,0000.0,0007.48,0003.10,0002.49
2023-06-08 14:51:00,SystemResetWarning,0831.0,4.99,000.00,029.9,028.2,000.0,038.4,031.3,27.1,0000.0,0007.52,0003.12,0002.50
2023-06-08 14:52:00,SystemResetWarning,0831.0,5.00,000.00,029.9,028.2,000.0,038.4,031.3,27.1,0000.0,0007.13,0003.11,0002.53
2023-06-08 14:53:00,SystemResetWarning,0831.0,5.01,000.00,029.9,028.2,000.0,038.4,031.3,26.6,0000.0,0006.88,0003.10,0002.52
2023-06-08 14:54:00,SystemResetWarning,0831.1,5.01,000.00,029.9,028.3,000.0,038.4,031.4,26.9,0000.0,0007.33,0003.12,0002.52
2023-06-08 14:55:00,SystemResetWarning,0831.0,5.00,000.00,029.9,028.3,000.0,038.5,031.3,26.7,0000.0,0007.57,0003.16,0002.53
2023-06-08 14:56:00,SystemResetWarning,0831.1,4.99,000.00,029.9,028.3,000.0,038.5,031.3,26.1,0000.0,0007.94,0003.18,0002.54
2023-06-08 14:57:00,SystemResetWarning,0831.1,4.99,000.00,029.9,028.3,000.0,038.4,031.4,26.5,0000.0,0007.73,0003.17,0002.53
2023-06-08 14:58:00,SystemResetWarning,0831.1,5.00,000.00,029.9,028.3,000.0,038.5,031.4,25.5,0000.0,0007.94,0003.17,0002.53
2023-06-08 14:59:00,SystemResetWarning,0831.1,5.01,000.00,029.9,028.3,000.0,038.5,031.4,25.8,0000.0,0007.97,0003.17,0002.52
